Location: Unspecified
(29.9680°N, 0.0000°E)
Time: 02:34:31
(UTC+00:00)

Explorer 7 - Pass Details

Date: 28 June 2019
Orbit: 485 x 680 km, 50.3° (Epoch: 17 July)

Event Time Altitude Azimuth Distance (km) Brightness Sun altitude
Rises 12:33:41 0° 322° (NW) 2,929 10.5 80.5°
Reaches altitude 10° 12:36:07 10° 331° (NNW) 2,045 9.9 80.1°
Maximum altitude 12:40:31 37° 39° (NE) 1,029 8.6 79.3°
Drops below altitude 10° 12:45:02 10° 106° (ESE) 2,103 9.8 78.5°
Sets 12:47:34 0° 115° (ESE) 3,021 10.5 78.1°
